Showing default

HAIYANG 1C, 43609

Orbit data source: Space-Track

HAIYANG 1C, 43609 is a Chinese payload satellite in SSO that was launched on Fri, 07 Sep 2018 UTC via a CHANG ZHENG 2C launch vehicle from the Taiyaun Space Center, China (TSC). Payload-class satellites include a variety of spacecraft equipped with specific instruments for various scientific and technological missions. These include communications satellites like Starlink; space stations such as the ISS; scientific satellites like the Hubble; Earth observation satellites from companies like Planet Labs, Umbra, and HawkEye 360; GPS; miniature CubeSats for education and research; and military/defense satellites.

Loading next visibility...
Identifier
43609, 2018-068A
Orbit
SSO
Country
Flag of CNCN / PRC
Related business
Manufacturer
DFH
Mission
Operational Civil Imaging
Bus & Motor
CAST-968, Unknown motor
Mass
442 kg wet, 429 kg dry
Launch date (UTC)
2018-09-07 (7 years ago)
Launch vehicle
CHANG ZHENG 2C
Launch site
Taiyaun Space Center, China (TSC)
Object type
Payload
Rocket body
Debris
Shape & HBR
Box + 2 Pan, 3.8 m
Radar Cross Section
3.660 m², Large (>1 m²)

Expand to show TLE details & history
Last TLE update: 18 hours ago

TLE from 18 hours ago
0 HAIYANG 1C
1 43609U 18068A   25348.01100742  .00000427  00000-0  16824-3 0  9999
2 43609  98.5429  57.8145 0009726 285.0559  74.9549 14.34103057380545
Epoch: 2025-12-14T00:15Z
TLE epoch observation values (Epoch: 2025-12-14T00:15:51.041Z)
Latitude
-0.00003°
Longitude
-29.07822°
Altitude
779.187 km
Speed
7.465 km/s
True Right ascension
03h 51m 15s
True Declination
0° 00' 00"
Sunlit
Object was in full shadow at epoch
Visualization orbit readout
Latitude
Unknown
Longitude
Unknown
Altitude
Unknown
Speed
Unknown
Apparent Right ascension
Unknown
Apparent Declination
Unknown
Sunlit
N/A
Visualization observer readout
Local Sidereal Time
16:23:05
Azimuth
Unknown
Elevation
Unknown
Doppler factor
Unknown
Orbital elements
Apogee altitude
782.138 km
Perigee altitude
768.223 km
Semi-major axis
7,153.317 km
Eccentricity
0.00097
Inclination
98.5429°
RAAN
57.8145°
Arg. of periapsis
285.0559°
True anomaly
75.06257°
Mean anomaly
74.9549°
Eccentric anomaly
75.00873°
Mean motion
3.58742 °/min
Orbital period
100.35 mins
BSTAR
0.00016824
Loading maneuver chart data...
Computing Atmospheric mass density...
Loading historical data...
Loading historical data...
Loading historical data...
Loading historical data...
Loading historical data...
Loading historical data...
Loading historical data...
Other satellites on launch #68 in the year 2018 (2018-09-07 UTC)

Documentation

Showing up to 5 results
|